Location: London
(51.5166°N, 0.1046°W)
Time: 11:52:38
(UTC+01:00)

ISS - Visible Passes

Search period start: 24 July 2017 00:00
Search period end: 03 August 2017 00:00
Orbit: 400 x 408 km, 51.6° (Epoch: 24 July)

Date Brightness Start Highest point End Pass type
(mag) Time Alt. Az. Time Alt. Az. Time Alt. Az.
24 Jul -3.9 01:34:43 10° W 01:38:00 88° NNE 01:41:16 10° E visible
24 Jul -3.5 03:11:14 10° W 03:14:21 41° SSW 03:17:27 10° SE visible
24 Jul -3.8 23:06:03 10° WSW 23:09:15 55° SSE 23:12:27 10° E visible
25 Jul -3.9 00:42:24 10° W 00:45:41 85° N 00:48:57 10° E visible
25 Jul -3.9 02:18:54 10° W 02:22:08 58° SSW 02:25:20 10° ESE visible
25 Jul -2.3 03:55:57 10° W 03:58:08 17° SW 04:00:17 10° S visible
25 Jul -3.4 22:13:58 10° SW 22:17:01 39° SSE 22:20:05 10° E visible
25 Jul -3.9 23:50:05 10° W 23:53:20 90° W 23:56:38 10° E visible
26 Jul -3.6 01:26:35 10° W 01:29:17 56° W 01:29:17 56° W visible
26 Jul -4.0 22:57:46 10° WSW 23:01:01 78° SSE 23:04:17 10° E visible
27 Jul -4.0 00:34:15 10° W 00:37:31 89° S 00:37:56 65° E visible
27 Jul -3.8 22:05:29 10° WSW 22:08:42 61° SSE 22:11:56 10° E visible
27 Jul -3.9 23:41:53 10° W 23:45:10 86° N 23:46:57 25° E visible
28 Jul -1.9 01:18:23 10° W 01:19:33 20° W 01:19:33 20° W visible
28 Jul -3.9 22:49:31 10° W 22:52:47 88° N 22:56:03 10° E visible
29 Jul -3.5 00:26:01 10° W 00:28:42 54° WSW 00:28:42 54° WSW visible
29 Jul -3.9 21:57:09 10° WSW 22:00:25 83° S 22:03:42 10° E visible
29 Jul -4.0 23:33:39 10° W 23:36:55 85° S 23:37:53 42° ESE visible
30 Jul -1.2 01:10:13 10° W 01:10:31 12° W 01:10:31 12° W visible
30 Jul -3.9 22:41:16 10° W 22:44:31 87° N 22:47:07 15° E visible
31 Jul -2.6 00:17:46 10° W 00:19:44 30° WSW 00:19:44 30° WSW visible
31 Jul -3.8 21:48:51 10° W 21:52:07 86° N 21:55:23 10° E visible
31 Jul -3.9 23:25:21 10° W 23:28:35 64° SSW 23:28:59 56° SSE visible
01 Aug -3.9 22:32:56 10° W 22:36:12 80° S 22:38:13 21° ESE visible
02 Aug -1.8 00:09:33 10° W 00:10:51 19° WSW 00:10:51 19° WSW visible
02 Aug -3.8 21:40:30 10° W 21:43:47 89° N 21:47:03 10° E visible
02 Aug -3.3 23:17:02 10° W 23:20:07 41° SSW 23:20:07 41° SSW visible
